TimeCST,TemperatureF,Dew PointF,Humidity,Sea Level PressureIn,VisibilityMPH,Wind Direction,Wind SpeedMPH,Gust SpeedMPH,PrecipitationIn,Events,Conditions,WindDirDegrees,DateUTC
12:12 AM,17.6,15.8,93,30.10,10.0,North,12.7,-,N/A,,Clear,10,2013-02-28 06:12:00
12:33 AM,17.6,15.8,93,30.11,10.0,North,9.2,-,N/A,,Clear,10,2013-02-28 06:33:00
12:52 AM,15.8,15.8,100,30.10,10.0,NNE,6.9,-,N/A,,Clear,20,2013-02-28 06:52:00
1:12 AM,15.8,14.0,93,30.11,10.0,North,6.9,-,N/A,,Clear,10,2013-02-28 07:12:00
1:33 AM,14.0,12.2,93,30.11,10.0,North,4.6,-,N/A,,Clear,10,2013-02-28 07:33:00
1:52 AM,12.2,10.4,92,30.12,10.0,North,8.1,-,N/A,,Mostly Cloudy,360,2013-02-28 07:52:00
2:12 AM,15.8,12.2,86,30.12,10.0,North,6.9,-,N/A,,Overcast,10,2013-02-28 08:12:00
2:33 AM,15.8,14.0,93,30.12,10.0,North,6.9,-,N/A,,Overcast,360,2013-02-28 08:33:00
2:52 AM,17.6,15.8,93,30.12,10.0,North,6.9,-,N/A,,Overcast,10,2013-02-28 08:52:00
3:13 AM,19.4,17.6,93,30.13,10.0,North,6.9,-,N/A,,Overcast,10,2013-02-28 09:13:00
3:33 AM,19.4,17.6,93,30.13,10.0,North,8.1,-,N/A,,Overcast,10,2013-02-28 09:33:00
3:52 AM,19.4,17.6,93,30.13,10.0,North,8.1,-,N/A,,Overcast,10,2013-02-28 09:52:00
4:13 AM,19.4,17.6,93,30.13,10.0,North,9.2,-,N/A,,Overcast,10,2013-02-28 10:13:00
4:32 AM,19.4,17.6,93,30.14,10.0,North,6.9,-,N/A,,Overcast,10,2013-02-28 10:32:00
4:53 AM,19.4,17.6,93,30.14,10.0,North,5.8,-,N/A,,Overcast,360,2013-02-28 10:53:00
5:13 AM,19.4,17.6,93,30.15,10.0,North,5.8,-,N/A,,Overcast,360,2013-02-28 11:13:00
5:32 AM,21.2,17.6,86,30.15,10.0,North,6.9,-,N/A,,Overcast,350,2013-02-28 11:32:00
5:53 AM,21.2,19.4,93,30.16,10.0,North,8.1,-,N/A,,Overcast,360,2013-02-28 11:53:00
6:13 AM,21.2,19.4,93,30.16,10.0,North,5.8,-,N/A,,Overcast,360,2013-02-28 12:13:00
6:32 AM,21.2,19.4,93,30.16,10.0,North,9.2,-,N/A,,Overcast,360,2013-02-28 12:32:00
6:53 AM,21.2,19.4,93,30.16,10.0,North,8.1,-,N/A,,Overcast,360,2013-02-28 12:53:00
7:12 AM,21.2,19.4,93,30.17,10.0,North,6.9,-,N/A,,Overcast,360,2013-02-28 13:12:00
7:32 AM,21.2,19.4,93,30.17,10.0,North,6.9,-,N/A,,Overcast,10,2013-02-28 13:32:00
7:53 AM,23.0,19.4,86,30.17,10.0,NNE,9.2,-,N/A,,Overcast,20,2013-02-28 13:53:00
8:12 AM,24.8,21.2,86,30.18,10.0,NNE,8.1,-,N/A,,Overcast,20,2013-02-28 14:12:00
8:32 AM,24.8,21.2,86,30.18,10.0,NNE,5.8,-,N/A,,Overcast,30,2013-02-28 14:32:00
8:53 AM,24.8,21.2,86,30.18,10.0,North,8.1,-,N/A,,Overcast,360,2013-02-28 14:53:00
9:12 AM,24.8,21.2,86,30.18,10.0,North,5.8,-,N/A,,Overcast,360,2013-02-28 15:12:00
9:32 AM,24.8,21.2,86,30.19,10.0,North,6.9,-,N/A,,Overcast,360,2013-02-28 15:32:00
9:53 AM,24.8,21.2,86,30.19,10.0,North,8.1,-,N/A,,Overcast,350,2013-02-28 15:53:00
10:12 AM,24.8,21.2,86,30.20,10.0,North,8.1,-,N/A,,Overcast,350,2013-02-28 16:12:00
10:33 AM,24.8,21.2,86,30.20,10.0,North,8.1,-,N/A,,Overcast,350,2013-02-28 16:33:00
10:52 AM,24.8,21.2,86,30.20,10.0,North,8.1,-,N/A,,Overcast,360,2013-02-28 16:52:00
11:12 AM,26.6,21.2,80,30.20,10.0,North,8.1,-,N/A,,Overcast,350,2013-02-28 17:12:00
11:33 AM,26.6,21.2,80,30.21,10.0,North,6.9,-,N/A,,Overcast,360,2013-02-28 17:33:00
11:52 AM,26.6,21.2,80,30.21,10.0,North,9.2,-,N/A,,Overcast,350,2013-02-28 17:52:00
12:33 PM,26.6,21.2,80,30.20,10.0,North,8.1,-,N/A,,Overcast,350,2013-02-28 18:33:00
12:52 PM,26.6,21.2,80,30.20,10.0,North,8.1,-,N/A,,Overcast,350,2013-02-28 18:52:00
1:13 PM,26.6,21.2,80,30.20,10.0,North,9.2,-,N/A,,Overcast,350,2013-02-28 19:13:00
1:33 PM,26.6,21.2,80,30.20,10.0,North,10.4,-,N/A,,Overcast,360,2013-02-28 19:33:00
1:52 PM,26.6,21.2,80,30.19,10.0,North,9.2,-,N/A,,Overcast,350,2013-02-28 19:52:00
2:13 PM,26.6,21.2,80,30.19,10.0,North,10.4,-,N/A,,Overcast,360,2013-02-28 20:13:00
2:32 PM,26.6,21.2,80,30.19,10.0,North,10.4,-,N/A,,Overcast,360,2013-02-28 20:32:00
2:52 PM,26.6,21.2,80,30.19,10.0,North,10.4,-,N/A,,Overcast,360,2013-02-28 20:52:00
3:13 PM,26.6,21.2,80,30.20,10.0,North,11.5,-,N/A,,Overcast,360,2013-02-28 21:13:00
3:33 PM,26.6,21.2,80,30.20,10.0,North,9.2,-,N/A,,Overcast,360,2013-02-28 21:33:00
3:52 PM,26.6,21.2,80,30.20,10.0,North,9.2,-,N/A,,Overcast,360,2013-02-28 21:52:00
4:13 PM,26.6,21.2,80,30.20,10.0,North,6.9,-,N/A,,Overcast,10,2013-02-28 22:13:00
4:32 PM,26.6,21.2,80,30.20,10.0,North,6.9,-,N/A,,Overcast,10,2013-02-28 22:32:00
4:52 PM,26.6,21.2,80,30.20,10.0,North,5.8,-,N/A,,Overcast,360,2013-02-28 22:52:00
5:12 PM,26.6,21.2,80,30.20,10.0,North,5.8,-,N/A,,Overcast,360,2013-02-28 23:12:00
5:32 PM,26.6,21.2,80,30.21,10.0,North,6.9,-,N/A,,Overcast,360,2013-02-28 23:32:00
5:53 PM,24.8,21.2,86,30.22,10.0,North,8.1,-,N/A,,Overcast,360,2013-02-28 23:53:00
6:12 PM,24.8,21.2,86,30.22,10.0,North,6.9,-,N/A,,Overcast,350,2013-03-01 00:12:00
6:32 PM,24.8,21.2,86,30.23,10.0,North,6.9,-,N/A,,Overcast,360,2013-03-01 00:32:00
6:53 PM,24.8,21.2,86,30.23,10.0,North,10.4,-,N/A,,Overcast,360,2013-03-01 00:53:00
7:12 PM,24.8,21.2,86,30.23,10.0,North,8.1,-,N/A,,Overcast,360,2013-03-01 01:12:00
7:32 PM,24.8,21.2,86,30.23,10.0,North,8.1,-,N/A,,Overcast,360,2013-03-01 01:32:00
7:53 PM,24.8,21.2,86,30.23,10.0,North,6.9,-,N/A,,Overcast,350,2013-03-01 01:53:00
8:12 PM,24.8,21.2,86,30.23,10.0,North,5.8,-,N/A,,Overcast,10,2013-03-01 02:12:00
8:32 PM,24.8,21.2,86,30.24,10.0,North,5.8,-,N/A,,Overcast,360,2013-03-01 02:32:00
8:53 PM,21.2,19.4,93,30.24,10.0,North,3.5,-,N/A,,Overcast,10,2013-03-01 02:53:00
9:12 PM,21.2,17.6,86,30.24,10.0,North,3.5,-,N/A,,Mostly Cloudy,10,2013-03-01 03:12:00
9:32 PM,19.4,19.4,100,30.24,10.0,NNE,3.5,-,N/A,,Scattered Clouds,20,2013-03-01 03:32:00
9:53 PM,19.4,17.6,93,30.24,10.0,NNE,4.6,-,N/A,,Clear,20,2013-03-01 03:53:00
10:12 PM,17.6,15.8,93,30.25,10.0,North,4.6,-,N/A,,Clear,10,2013-03-01 04:12:00
10:32 PM,17.6,14.0,86,30.25,10.0,North,4.6,-,N/A,,Clear,350,2013-03-01 04:32:00
10:53 PM,17.6,15.8,93,30.24,10.0,North,3.5,-,N/A,,Clear,10,2013-03-01 04:53:00
11:12 PM,15.8,14.0,93,30.24,10.0,North,4.6,-,N/A,,Clear,10,2013-03-01 05:12:00
11:32 PM,15.8,12.2,86,30.24,10.0,North,3.5,-,N/A,,Clear,360,2013-03-01 05:32:00
11:53 PM,15.8,12.2,86,30.24,10.0,North,5.8,-,N/A,,Scattered Clouds,360,2013-03-01 05:53:00